,,PA_Meas_PMT16A,,PR_Meas_QMR101_102,,RH_Meas_QMH101,,SR_Meas_QMS101,,TA_Meas_QMH101,,GenWind,,GenWind,
time,status,PA,status,PR,status,RH,status,SR,status,TA,status,DirAvg,status,SpdAvg,
2013-08-26, 00:00:04,VALID,916.703,VALID,0,VALID,96.4286,VALID,0,VALID,20.2489,VALID,209,VALID,0,
2013-08-26, 00:01:04,VALID,916.708,VALID,0,VALID,96.421,VALID,0,VALID,20.2684,VALID,210,VALID,0,
2013-08-26, 00:02:04,VALID,916.709,VALID,0,VALID,96.421,VALID,0,VALID,20.2293,VALID,210,VALID,0,
2013-08-26, 00:03:04,VALID,916.701,VALID,0,VALID,96.3905,VALID,0,VALID,20.2098,VALID,210,VALID,0,
2013-08-26, 00:04:04,VALID,916.698,VALID,0,VALID,96.3371,VALID,0,VALID,20.1318,VALID,210,VALID,0,
2013-08-26, 00:05:04,VALID,916.702,VALID,0,VALID,96.2761,VALID,0,VALID,20.0944,VALID,162,VALID,0,
2013-08-26, 00:06:04,VALID,916.699,VALID,0,VALID,96.1999,VALID,0,VALID,19.9953,VALID,93,VALID,0,
2013-08-26, 00:07:04,VALID,916.701,VALID,0,VALID,96.1846,VALID,0,VALID,19.9968,VALID,39,VALID,0,
2013-08-26, 00:08:04,VALID,916.685,VALID,0,VALID,96.2075,VALID,0,VALID,20.0163,VALID,39,VALID,0,
2013-08-26, 00:09:04,VALID,916.711,VALID,0,VALID,96.2609,VALID,0,VALID,20.0358,VALID,39,VALID,0,
2013-08-26, 00:10:04,VALID,916.744,VALID,0,VALID,96.299,VALID,0,VALID,20.0553,VALID,39,VALID,0,
2013-08-26, 00:11:04,VALID,916.764,VALID,0,VALID,96.3524,VALID,0,VALID,20.0553,VALID,39,VALID,0,
2013-08-26, 00:12:04,VALID,916.758,VALID,0,VALID,96.36,VALID,0,VALID,20.0749,VALID,39,VALID,0,
2013-08-26, 00:13:04,VALID,916.802,VALID,0,VALID,96.4057,VALID,0,VALID,20.1139,VALID,39,VALID,0,
2013-08-26, 00:14:04,VALID,916.841,VALID,0,VALID,96.421,VALID,0,VALID,20.1139,VALID,39,VALID,0,
2013-08-26, 00:15:04,VALID,916.836,VALID,0,VALID,96.4362,VALID,0,VALID,20.0944,VALID,260,VALID,0,
2013-08-26, 00:16:04,VALID,916.838,VALID,0,VALID,96.421,VALID,0,VALID,20.1139,VALID,260,VALID,0,
2013-08-26, 00:17:04,VALID,916.811,VALID,0,VALID,96.4362,VALID,0,VALID,20.0928,VALID,260,VALID,0,
2013-08-26, 00:18:04,VALID,916.816,VALID,0,VALID,96.4515,VALID,0,VALID,20.1139,VALID,4,VALID,0,
2013-08-26, 00:19:04,VALID,916.827,VALID,0,VALID,96.4438,VALID,0,VALID,20.0733,VALID,23,VALID,0,
2013-08-26, 00:20:04,VALID,916.793,VALID,0,VALID,96.4362,VALID,0,VALID,20.0538,VALID,19,VALID,0,
2013-08-26, 00:21:04,VALID,916.767,VALID,0,VALID,96.4286,VALID,0,VALID,20.0749,VALID,19,VALID,0,
2013-08-26, 00:22:04,VALID,916.743,VALID,0,VALID,96.4286,VALID,0,VALID,20.0553,VALID,19,VALID,0,
2013-08-26, 00:23:04,VALID,916.738,VALID,0,VALID,96.4362,VALID,0,VALID,20.0553,VALID,353,VALID,0,
2013-08-26, 00:24:04,VALID,916.706,VALID,0,VALID,96.4515,VALID,0,VALID,20.1139,VALID,335,VALID,0,
2013-08-26, 00:25:04,VALID,916.718,VALID,0,VALID,96.4819,VALID,0,VALID,20.1919,VALID,308,VALID,0,
2013-08-26, 00:26:04,VALID,916.726,VALID,0,VALID,96.5201,VALID,0,VALID,20.2309,VALID,308,VALID,0,
2013-08-26, 00:27:04,VALID,916.73,VALID,0,VALID,96.5353,VALID,0,VALID,20.2684,VALID,308,VALID,0,
2013-08-26, 00:28:04,VALID,916.723,VALID,0,VALID,96.5506,VALID,0,VALID,20.2879,VALID,15,VALID,0,
2013-08-26, 00:29:04,VALID,916.783,VALID,0,VALID,96.5506,VALID,0,VALID,20.2879,VALID,24,VALID,0,
2013-08-26, 00:30:04,VALID,916.797,VALID,0,VALID,96.5353,VALID,0,VALID,20.3284,VALID,24,VALID,0,
2013-08-26, 00:31:04,VALID,916.781,VALID,0,VALID,96.5506,VALID,0,VALID,20.3269,VALID,24,VALID,0,
2013-08-26, 00:32:04,VALID,916.799,VALID,0,VALID,96.5353,VALID,0,VALID,20.3479,VALID,24,VALID,0,
2013-08-26, 00:33:04,VALID,916.775,VALID,0,VALID,96.5429,VALID,0,VALID,20.3269,VALID,24,VALID,0,
2013-08-26, 00:34:04,VALID,916.767,VALID,0,VALID,96.5048,VALID,0,VALID,20.3269,VALID,23,VALID,0,
2013-08-26, 00:35:04,VALID,916.789,VALID,0,VALID,96.5201,VALID,0,VALID,20.3479,VALID,23,VALID,0,
2013-08-26, 00:36:04,VALID,916.75,VALID,0,VALID,96.5277,VALID,0,VALID,20.3869,VALID,23,VALID,0,
2013-08-26, 00:37:04,VALID,916.745,VALID,0,VALID,96.5201,VALID,0,VALID,20.4064,VALID,22,VALID,0,
2013-08-26, 00:38:04,VALID,916.739,VALID,0,VALID,96.5124,VALID,0,VALID,20.4064,VALID,22,VALID,0,
2013-08-26, 00:39:04,VALID,916.721,VALID,0,VALID,96.4972,VALID,0,VALID,20.3854,VALID,22,VALID,0,
2013-08-26, 00:40:04,VALID,916.763,VALID,0,VALID,96.4743,VALID,0,VALID,20.3659,VALID,17,VALID,0,
2013-08-26, 00:41:04,VALID,916.753,VALID,0,VALID,96.4362,VALID,0.107441,VALID,20.3074,VALID,1,VALID,0,
2013-08-26, 00:42:04,VALID,916.757,VALID,0,VALID,96.4057,VALID,0,VALID,20.2293,VALID,39,VALID,0,
2013-08-26, 00:43:04,VALID,916.753,VALID,0,VALID,96.3752,VALID,0.107441,VALID,20.1513,VALID,35,VALID,0,
2013-08-26, 00:44:04,VALID,916.772,VALID,0,VALID,96.3524,VALID,0,VALID,20.0928,VALID,44,VALID,0,
2013-08-26, 00:45:04,VALID,916.774,VALID,0,VALID,96.3142,VALID,0,VALID,20.0148,VALID,36,VALID,0,
2013-08-26, 00:46:04,VALID,916.735,VALID,0,VALID,96.2914,VALID,0,VALID,19.9548,VALID,18,VALID,0,
2013-08-26, 00:47:04,VALID,916.747,VALID,0,VALID,96.3295,VALID,0,VALID,19.9758,VALID,22,VALID,0,
2013-08-26, 00:48:04,VALID,916.737,VALID,0,VALID,96.3524,VALID,0.107441,VALID,19.9353,VALID,16,VALID,0,
2013-08-26, 00:49:04,VALID,916.732,VALID,0,VALID,96.3905,VALID,0,VALID,19.9758,VALID,16,VALID,0,
2013-08-26, 00:50:04,VALID,916.73,VALID,0,VALID,96.4133,VALID,0.107441,VALID,19.9563,VALID,19,VALID,0,
2013-08-26, 00:51:04,VALID,916.706,VALID,0,VALID,96.4286,VALID,0,VALID,19.9353,VALID,5,VALID,0,
2013-08-26, 00:52:04,VALID,916.662,VALID,0,VALID,96.4743,VALID,0,VALID,19.9563,VALID,8,VALID,0,
2013-08-26, 00:53:04,VALID,916.671,VALID,0,VALID,96.4972,VALID,0,VALID,19.9758,VALID,5,VALID,0,
2013-08-26, 00:54:04,VALID,916.652,VALID,0,VALID,96.5124,VALID,0,VALID,19.9758,VALID,18,VALID,0,
2013-08-26, 00:55:04,VALID,916.653,VALID,0,VALID,96.5277,VALID,0,VALID,19.9353,VALID,2,VALID,0,
2013-08-26, 00:56:04,VALID,916.61,VALID,0,VALID,96.5201,VALID,0,VALID,19.9968,VALID,1,VALID,0,
2013-08-26, 00:57:04,VALID,916.569,VALID,0,VALID,96.5582,VALID,0,VALID,19.9758,VALID,354,VALID,0,
2013-08-26, 00:58:04,VALID,916.566,VALID,0,VALID,96.5658,VALID,0,VALID,19.9953,VALID,355,VALID,0,
2013-08-26, 00:59:04,VALID,916.561,VALID,0,VALID,96.5734,VALID,0,VALID,19.9953,VALID,14,VALID,0,
2013-08-26, 01:00:04,VALID,916.571,VALID,0,VALID,96.5887,VALID,0,VALID,19.9953,VALID,11,VALID,0,
2013-08-26, 01:01:04,VALID,916.556,VALID,0,VALID,96.6268,VALID,0,VALID,20.0148,VALID,25,VALID,0,
2013-08-26, 01:02:04,VALID,916.537,VALID,0,VALID,96.6192,VALID,0,VALID,20.0343,VALID,37,VALID,0,
2013-08-26, 01:03:04,VALID,916.529,VALID,0,VALID,96.6268,VALID,0,VALID,20.0148,VALID,37,VALID,0,
2013-08-26, 01:04:04,VALID,916.509,VALID,0,VALID,96.6344,VALID,0,VALID,20.0148,VALID,37,VALID,0,
2013-08-26, 01:05:04,VALID,916.505,VALID,0,VALID,96.6344,VALID,0,VALID,19.9953,VALID,37,VALID,0,
2013-08-26, 01:06:04,VALID,916.526,VALID,0,VALID,96.6649,VALID,0.107441,VALID,19.9953,VALID,37,VALID,0,
2013-08-26, 01:07:04,VALID,916.464,VALID,0,VALID,96.6497,VALID,0,VALID,19.9548,VALID,5,VALID,0,
2013-08-26, 01:08:04,VALID,916.459,VALID,0,VALID,96.6573,VALID,0.107441,VALID,19.9758,VALID,2,VALID,0,
2013-08-26, 01:09:04,VALID,916.45,VALID,0,VALID,96.6573,VALID,0,VALID,19.9773,VALID,10,VALID,0,
2013-08-26, 01:10:04,VALID,916.445,VALID,0,VALID,96.6725,VALID,0,VALID,19.9968,VALID,345,VALID,0,
2013-08-26, 01:11:04,VALID,916.426,VALID,0,VALID,96.6878,VALID,0,VALID,19.9968,VALID,345,VALID,0,
2013-08-26, 01:12:04,VALID,916.429,VALID,0,VALID,96.6878,VALID,0,VALID,20.0163,VALID,321,VALID,0,
2013-08-26, 01:13:04,VALID,916.454,VALID,0,VALID,96.7107,VALID,0,VALID,19.9773,VALID,321,VALID,0,
2013-08-26, 01:14:04,VALID,916.446,VALID,0,VALID,96.703,VALID,0,VALID,19.9968,VALID,321,VALID,0,
2013-08-26, 01:15:04,VALID,916.396,VALID,0,VALID,96.7107,VALID,0,VALID,19.9773,VALID,321,VALID,0,
2013-08-26, 01:16:04,VALID,916.407,VALID,0,VALID,96.7107,VALID,0,VALID,19.9563,VALID,321,VALID,0,
2013-08-26, 01:17:04,VALID,916.409,VALID,0,VALID,96.7411,VALID,0,VALID,20.0163,VALID,321,VALID,0,
2013-08-26, 01:18:04,VALID,916.366,VALID,0,VALID,96.7411,VALID,0,VALID,20.0163,VALID,321,VALID,0,
2013-08-26, 01:19:04,VALID,916.354,VALID,0,VALID,96.7716,VALID,0,VALID,20.0358,VALID,321,VALID,0,
2013-08-26, 01:20:04,VALID,916.349,VALID,0,VALID,96.7411,VALID,0,VALID,20.0358,VALID,321,VALID,0,
2013-08-26, 01:21:04,VALID,916.324,VALID,0,VALID,96.7716,VALID,0,VALID,20.0358,VALID,321,VALID,0,
2013-08-26, 01:22:04,VALID,916.304,VALID,0,VALID,96.7488,VALID,0,VALID,20.0343,VALID,321,VALID,0,
2013-08-26, 01:23:04,VALID,916.277,VALID,0,VALID,96.7564,VALID,0,VALID,20.0553,VALID,291,VALID,0,
2013-08-26, 01:24:04,VALID,916.301,VALID,0,VALID,96.7793,VALID,0,VALID,20.0343,VALID,291,VALID,0,
2013-08-26, 01:25:04,VALID,916.271,VALID,0,VALID,96.7716,VALID,0,VALID,20.0538,VALID,263,VALID,0,
2013-08-26, 01:26:04,VALID,916.272,VALID,0,VALID,96.7793,VALID,0.107441,VALID,20.0538,VALID,263,VALID,0,
2013-08-26, 01:27:04,VALID,916.267,VALID,0,VALID,96.7869,VALID,0,VALID,20.0343,VALID,256,VALID,0,
2013-08-26, 01:28:04,VALID,916.247,VALID,0,VALID,96.8021,VALID,0,VALID,20.0343,VALID,229,VALID,0,
2013-08-26, 01:29:04,VALID,916.313,VALID,0,VALID,96.8098,VALID,0,VALID,20.0343,VALID,243,VALID,0,
2013-08-26, 01:30:04,VALID,916.283,VALID,0,VALID,96.7793,VALID,0.107441,VALID,20.0538,VALID,243,VALID,0,
2013-08-26, 01:31:04,VALID,916.262,VALID,0,VALID,96.7869,VALID,0.107441,VALID,20.0538,VALID,243,VALID,0,
2013-08-26, 01:32:04,VALID,916.243,VALID,0,VALID,96.825,VALID,0.107441,VALID,20.0928,VALID,344,VALID,0,
2013-08-26, 01:33:04,VALID,916.208,VALID,0,VALID,96.7945,VALID,0,VALID,20.0944,VALID,5,VALID,0,
2013-08-26, 01:34:04,VALID,916.193,VALID,0,VALID,96.7945,VALID,0,VALID,20.0343,VALID,5,VALID,0,
2013-08-26, 01:35:04,VALID,916.212,VALID,0,VALID,96.8098,VALID,0.107441,VALID,20.0148,VALID,5,VALID,0,
2013-08-26, 01:36:04,VALID,916.23,VALID,0,VALID,96.825,VALID,0,VALID,19.9938,VALID,5,VALID,0,
2013-08-26, 01:37:04,VALID,916.232,VALID,0,VALID,96.8098,VALID,0,VALID,19.9938,VALID,5,VALID,0,
2013-08-26, 01:38:04,VALID,916.218,VALID,0,VALID,96.825,VALID,0.107441,VALID,20.0148,VALID,29,VALID,0,
2013-08-26, 01:39:04,VALID,916.273,VALID,0,VALID,96.8479,VALID,0.107441,VALID,19.9938,VALID,351,VALID,0,
2013-08-26, 01:40:04,VALID,916.317,VALID,0,VALID,96.8326,VALID,0,VALID,20.0148,VALID,2,VALID,0,
2013-08-26, 01:41:04,VALID,916.344,VALID,0,VALID,96.8479,VALID,0.107441,VALID,19.9953,VALID,56,VALID,0,
2013-08-26, 01:42:04,VALID,916.351,VALID,0,VALID,96.8479,VALID,0,VALID,19.9953,VALID,55,VALID,0,
2013-08-26, 01:43:04,VALID,916.345,VALID,0,VALID,96.825,VALID,0,VALID,19.9353,VALID,55,VALID,0,
2013-08-26, 01:44:04,VALID,916.366,VALID,0,VALID,96.8479,VALID,0.107441,VALID,19.9758,VALID,55,VALID,0,
2013-08-26, 01:45:04,VALID,916.347,VALID,0,VALID,96.8479,VALID,0.107441,VALID,19.9548,VALID,55,VALID,0,
2013-08-26, 01:46:04,VALID,916.357,VALID,0,VALID,96.8707,VALID,0,VALID,19.9758,VALID,55,VALID,0,
2013-08-26, 01:47:04,VALID,916.317,VALID,0,VALID,96.8631,VALID,0,VALID,20.0148,VALID,55,VALID,0,
2013-08-26, 01:48:04,VALID,916.289,VALID,0,VALID,96.8479,VALID,0.107441,VALID,20.0148,VALID,55,VALID,0,
2013-08-26, 01:49:04,VALID,916.248,VALID,0,VALID,96.8631,VALID,0.107441,VALID,19.9938,VALID,354,VALID,0,
2013-08-26, 01:50:04,VALID,916.225,VALID,0,VALID,96.8555,VALID,0.107441,VALID,19.9743,VALID,335,VALID,0,
2013-08-26, 01:51:04,VALID,916.205,VALID,0,VALID,96.8784,VALID,0.107441,VALID,19.9743,VALID,336,VALID,0,
2013-08-26, 01:52:04,VALID,916.155,VALID,0,VALID,96.886,VALID,0.107441,VALID,19.9743,VALID,14,VALID,0,
2013-08-26, 01:53:04,VALID,916.133,VALID,0,VALID,96.8707,VALID,0.107441,VALID,19.9953,VALID,14,VALID,0,
2013-08-26, 01:54:04,VALID,916.107,VALID,0,VALID,96.8707,VALID,0,VALID,19.9563,VALID,14,VALID,0,
2013-08-26, 01:55:04,VALID,916.076,VALID,0,VALID,96.8631,VALID,0,VALID,19.9173,VALID,14,VALID,0,
2013-08-26, 01:56:04,VALID,916.046,VALID,0,VALID,96.9012,VALID,0,VALID,19.9173,VALID,14,VALID,0,
2013-08-26, 01:57:04,VALID,915.989,VALID,0,VALID,96.8784,VALID,0,VALID,19.9188,VALID,14,VALID,0,
2013-08-26, 01:58:04,VALID,916.003,VALID,0,VALID,96.8707,VALID,0,VALID,19.8798,VALID,61,VALID,0,
2013-08-26, 01:59:04,VALID,915.992,VALID,0,VALID,96.886,VALID,0,VALID,19.8213,VALID,92,VALID,0,
2013-08-26, 02:00:04,VALID,915.952,VALID,0,VALID,96.886,VALID,0,VALID,19.7628,VALID,92,VALID,0,
2013-08-26, 02:01:04,VALID,915.954,VALID,0,VALID,96.8784,VALID,0,VALID,19.7433,VALID,92,VALID,0,
2013-08-26, 02:02:04,VALID,915.951,VALID,0,VALID,96.8707,VALID,0,VALID,19.7043,VALID,92,VALID,0,
2013-08-26, 02:03:04,VALID,915.998,VALID,0,VALID,96.8707,VALID,0,VALID,19.6638,VALID,92,VALID,0,
2013-08-26, 02:04:04,VALID,916.004,VALID,0,VALID,96.886,VALID,0,VALID,19.6443,VALID,92,VALID,0,
2013-08-26, 02:05:04,VALID,916.006,VALID,0,VALID,96.8784,VALID,0,VALID,19.6458,VALID,75,VALID,0,
2013-08-26, 02:06:04,VALID,915.975,VALID,0,VALID,96.8936,VALID,0,VALID,19.6458,VALID,75,VALID,0,
2013-08-26, 02:07:04,VALID,915.983,VALID,0,VALID,96.9012,VALID,0,VALID,19.6248,VALID,75,VALID,0,
2013-08-26, 02:08:04,VALID,916.003,VALID,0,VALID,96.9089,VALID,0,VALID,19.5858,VALID,75,VALID,0,
2013-08-26, 02:09:04,VALID,915.945,VALID,0,VALID,96.886,VALID,0,VALID,19.5663,VALID,75,VALID,0,
2013-08-26, 02:10:04,VALID,915.952,VALID,0,VALID,96.8936,VALID,0,VALID,19.5078,VALID,75,VALID,0,
2013-08-26, 02:11:04,VALID,915.936,VALID,0,VALID,96.8936,VALID,0.107441,VALID,19.4688,VALID,75,VALID,0,
2013-08-26, 02:12:04,VALID,915.893,VALID,0,VALID,96.9241,VALID,0,VALID,19.4493,VALID,75,VALID,0,
2013-08-26, 02:13:04,VALID,915.891,VALID,0,VALID,96.9165,VALID,0.107441,VALID,19.4283,VALID,76,VALID,0,
2013-08-26, 02:14:04,VALID,915.896,VALID,0,VALID,96.9241,VALID,0,VALID,19.4298,VALID,76,VALID,0,
2013-08-26, 02:15:04,VALID,915.863,VALID,0,VALID,96.9165,VALID,0.107441,VALID,19.3698,VALID,154,VALID,0,
2013-08-26, 02:16:04,VALID,915.871,VALID,0,VALID,96.9546,VALID,0,VALID,19.3713,VALID,154,VALID,0,
2013-08-26, 02:17:04,VALID,915.869,VALID,0,VALID,96.9394,VALID,0.107441,VALID,19.3713,VALID,172,VALID,0,
2013-08-26, 02:18:04,VALID,915.824,VALID,0,VALID,96.9546,VALID,0,VALID,19.3518,VALID,175,VALID,0,
2013-08-26, 02:19:04,VALID,915.854,VALID,0,VALID,96.9775,VALID,0.107441,VALID,19.3308,VALID,147,VALID,0,
2013-08-26, 02:20:04,VALID,915.802,VALID,0,VALID,96.9622,VALID,0,VALID,19.3113,VALID,126,VALID,0,
2013-08-26, 02:21:04,VALID,915.794,VALID,0,VALID,96.9851,VALID,0,VALID,19.3323,VALID,128,VALID,0,
2013-08-26, 02:22:04,VALID,915.739,VALID,0,VALID,96.9927,VALID,0,VALID,19.2933,VALID,190,VALID,0,
2013-08-26, 02:23:04,VALID,915.764,VALID,0,VALID,96.9775,VALID,0,VALID,19.2738,VALID,140,VALID,0,
2013-08-26, 02:24:04,VALID,915.762,VALID,0,VALID,96.9927,VALID,0,VALID,19.2753,VALID,146,VALID,0,
2013-08-26, 02:25:04,VALID,915.712,VALID,0,VALID,96.9927,VALID,0,VALID,19.2558,VALID,181,VALID,0,
2013-08-26, 02:26:04,VALID,915.712,VALID,0,VALID,97.008,VALID,0,VALID,19.2767,VALID,177,VALID,0,
2013-08-26, 02:27:04,VALID,915.703,VALID,0,VALID,97.0156,VALID,0,VALID,19.2153,VALID,175,VALID,0,
2013-08-26, 02:28:04,VALID,915.655,VALID,0,VALID,97.0232,VALID,0,VALID,19.2363,VALID,171,VALID,0,
2013-08-26, 02:29:04,VALID,915.647,VALID,0,VALID,97.0385,VALID,0.107441,VALID,19.2139,VALID,171,VALID,0,
2013-08-26, 02:30:04,VALID,915.67,VALID,0,VALID,97.0308,VALID,0.107441,VALID,19.2153,VALID,186,VALID,0,
2013-08-26, 02:31:04,VALID,915.632,VALID,0,VALID,97.0308,VALID,0,VALID,19.1958,VALID,172,VALID,0,
2013-08-26, 02:32:04,VALID,915.636,VALID,0,VALID,97.0308,VALID,0,VALID,19.1763,VALID,162,VALID,0,
2013-08-26, 02:33:04,VALID,915.614,VALID,0,VALID,97.0461,VALID,0,VALID,19.1568,VALID,183,VALID,0,
2013-08-26, 02:34:04,VALID,915.631,VALID,0,VALID,97.0461,VALID,0,VALID,19.1568,VALID,161,VALID,0,
2013-08-26, 02:35:04,VALID,915.661,VALID,0,VALID,97.0613,VALID,0.107441,VALID,19.1568,VALID,171,VALID,0,
2013-08-26, 02:36:04,VALID,915.635,VALID,0,VALID,97.0537,VALID,0.107441,VALID,19.1164,VALID,131,VALID,0,
2013-08-26, 02:37:04,VALID,915.614,VALID,0,VALID,97.0613,VALID,0,VALID,19.1568,VALID,199,VALID,0,
2013-08-26, 02:38:04,VALID,915.627,VALID,0,VALID,97.069,VALID,0,VALID,19.1568,VALID,198,VALID,0,
2013-08-26, 02:39:04,VALID,915.667,VALID,0,VALID,97.0766,VALID,0,VALID,19.1388,VALID,163,VALID,0,
2013-08-26, 02:40:04,VALID,915.65,VALID,0,VALID,97.0766,VALID,0,VALID,19.1583,VALID,99,VALID,0,
2013-08-26, 02:41:04,VALID,915.641,VALID,0,VALID,97.0766,VALID,0,VALID,19.1792,VALID,215,VALID,0,
2013-08-26, 02:42:04,VALID,915.635,VALID,0,VALID,97.0842,VALID,0,VALID,19.1583,VALID,215,VALID,0,
2013-08-26, 02:43:04,VALID,915.6,VALID,0,VALID,97.0842,VALID,0,VALID,19.1778,VALID,215,VALID,0,
2013-08-26, 02:44:04,VALID,915.615,VALID,0,VALID,97.0766,VALID,0,VALID,19.1778,VALID,215,VALID,0,
2013-08-26, 02:45:04,VALID,915.602,VALID,0,VALID,97.0994,VALID,0,VALID,19.1778,VALID,217,VALID,0,
2013-08-26, 02:46:04,VALID,915.597,VALID,0,VALID,97.0994,VALID,0,VALID,19.1583,VALID,196,VALID,0,
2013-08-26, 02:47:04,VALID,915.596,VALID,0,VALID,97.0994,VALID,0,VALID,19.1388,VALID,176,VALID,0,
2013-08-26, 02:48:04,VALID,915.606,VALID,0,VALID,97.0842,VALID,0,VALID,19.1193,VALID,179,VALID,0,
2013-08-26, 02:49:04,VALID,915.628,VALID,0,VALID,97.0994,VALID,0,VALID,19.1193,VALID,178,VALID,0,
2013-08-26, 02:50:04,VALID,915.593,VALID,0,VALID,97.1147,VALID,0,VALID,19.0998,VALID,175,VALID,0,
2013-08-26, 02:51:04,VALID,915.607,VALID,0,VALID,97.1147,VALID,0,VALID,19.0803,VALID,208,VALID,0,
2013-08-26, 02:52:04,VALID,915.558,VALID,0,VALID,97.1071,VALID,0,VALID,19.0803,VALID,216,VALID,0,
2013-08-26, 02:53:04,VALID,915.544,VALID,0,VALID,97.1147,VALID,0,VALID,19.0622,VALID,218,VALID,0,
2013-08-26, 02:54:04,VALID,915.565,VALID,0,VALID,97.1071,VALID,0,VALID,19.0398,VALID,188,VALID,0,
2013-08-26, 02:55:04,VALID,915.552,VALID,0,VALID,97.1071,VALID,0,VALID,19.0398,VALID,189,VALID,0,
2013-08-26, 02:56:04,VALID,915.57,VALID,0,VALID,97.1147,VALID,0,VALID,19.0608,VALID,189,VALID,0,
2013-08-26, 02:57:04,VALID,915.559,VALID,0,VALID,97.0994,VALID,0,VALID,19.0593,VALID,219,VALID,0,
2013-08-26, 02:58:04,VALID,915.555,VALID,0,VALID,97.0766,VALID,0,VALID,19.0593,VALID,201,VALID,0,
2013-08-26, 02:59:04,VALID,915.516,VALID,0,VALID,97.0918,VALID,0,VALID,19.0398,VALID,219,VALID,0,
2013-08-26, 03:00:04,VALID,915.551,VALID,0,VALID,97.069,VALID,0,VALID,19.0203,VALID,180,VALID,0,
2013-08-26, 03:01:04,VALID,915.523,VALID,0,VALID,97.069,VALID,0,VALID,19.0398,VALID,188,VALID,0,
2013-08-26, 03:02:04,VALID,915.458,VALID,0,VALID,97.0308,VALID,0,VALID,19.0608,VALID,190,VALID,0,
2013-08-26, 03:03:04,VALID,915.49,VALID,0,VALID,97.0156,VALID,0,VALID,19.0398,VALID,187,VALID,0,
2013-08-26, 03:04:04,VALID,915.511,VALID,0,VALID,96.9775,VALID,0,VALID,18.9438,VALID,63,VALID,0,
2013-08-26, 03:05:04,VALID,915.481,VALID,0,VALID,96.9698,VALID,0,VALID,18.9229,VALID,95,VALID,0,
2013-08-26, 03:06:04,VALID,915.439,VALID,0,VALID,96.9622,VALID,0,VALID,18.9633,VALID,198,VALID,0,
2013-08-26, 03:07:04,VALID,915.518,VALID,0,VALID,96.9317,VALID,0,VALID,18.9814,VALID,226,VALID,0,
2013-08-26, 03:08:04,VALID,915.534,VALID,0,VALID,96.9012,VALID,0,VALID,19.0008,VALID,200,VALID,0,
2013-08-26, 03:09:04,VALID,915.549,VALID,0,VALID,96.886,VALID,0,VALID,19.0203,VALID,201,VALID,0,
2013-08-26, 03:10:04,VALID,915.554,VALID,0,VALID,96.8403,VALID,0,VALID,19.0203,VALID,197,VALID,0,
2013-08-26, 03:11:04,VALID,915.564,VALID,0,VALID,96.8326,VALID,0,VALID,18.9814,VALID,143,VALID,0,
2013-08-26, 03:12:04,VALID,915.573,VALID,0,VALID,96.7716,VALID,0,VALID,18.9633,VALID,144,VALID,0,
2013-08-26, 03:13:04,VALID,915.518,VALID,0,VALID,96.7107,VALID,0,VALID,18.9619,VALID,164,VALID,0,
2013-08-26, 03:14:04,VALID,915.537,VALID,0,VALID,96.6344,VALID,0,VALID,19.0218,VALID,158,VALID,0,
2013-08-26, 03:15:04,VALID,915.54,VALID,0,VALID,96.4972,VALID,0.107441,VALID,19.0413,VALID,114,VALID,0,
2013-08-26, 03:16:04,VALID,915.508,VALID,0,VALID,96.3295,VALID,0,VALID,19.0803,VALID,132,VALID,0,
2013-08-26, 03:17:04,VALID,915.468,VALID,0,VALID,96.0779,VALID,0,VALID,19.1388,VALID,128,VALID,0,
2013-08-26, 03:18:04,VALID,915.491,VALID,0,VALID,95.7806,VALID,0,VALID,19.1778,VALID,111,VALID,0,
2013-08-26, 03:19:04,VALID,915.482,VALID,0,VALID,95.4071,VALID,0,VALID,19.1763,VALID,97,VALID,0,
2013-08-26, 03:20:04,VALID,915.543,VALID,0,VALID,94.7972,VALID,0,VALID,19.1568,VALID,95,VALID,0,
2013-08-26, 03:21:04,VALID,915.544,VALID,0,VALID,94.3703,VALID,0.107441,VALID,19.1763,VALID,170,VALID,0,
2013-08-26, 03:22:04,VALID,915.554,VALID,0,VALID,93.9815,VALID,0,VALID,19.2153,VALID,158,VALID,0,
2013-08-26, 03:23:04,VALID,915.52,VALID,0,VALID,93.5622,VALID,0,VALID,19.2753,VALID,173,VALID,0,
2013-08-26, 03:24:04,VALID,915.538,VALID,0,VALID,92.8456,VALID,0,VALID,19.2753,VALID,167,VALID,0,
2013-08-26, 03:25:04,VALID,915.475,VALID,0,VALID,92.0756,VALID,0,VALID,19.3143,VALID,139,VALID,0,
2013-08-26, 03:26:04,VALID,915.487,VALID,0,VALID,91.2523,VALID,0,VALID,19.3533,VALID,127,VALID,0,
2013-08-26, 03:27:04,VALID,915.499,VALID,0,VALID,90.7263,VALID,0,VALID,19.3923,VALID,108,VALID,0,
2013-08-26, 03:28:04,VALID,915.471,VALID,0,VALID,90.7034,VALID,0,VALID,19.3713,VALID,132,VALID,0,
2013-08-26, 03:29:04,VALID,915.449,VALID,0,VALID,90.6882,VALID,0,VALID,19.3728,VALID,114,VALID,0,
2013-08-26, 03:30:04,VALID,915.439,VALID,0,VALID,90.1545,VALID,0,VALID,19.3923,VALID,117,VALID,0,
2013-08-26, 03:31:04,VALID,915.42,VALID,0,VALID,89.8267,VALID,0,VALID,19.4508,VALID,98,VALID,0,
2013-08-26, 03:32:04,VALID,915.392,VALID,0,VALID,89.1177,VALID,0,VALID,19.4898,VALID,114,VALID,0,
2013-08-26, 03:33:04,VALID,915.392,VALID,0,VALID,89.0872,VALID,0,VALID,19.5288,VALID,140,VALID,0,
2013-08-26, 03:34:04,VALID,915.39,VALID,0,VALID,88.7975,VALID,0,VALID,19.5288,VALID,153,VALID,0,
2013-08-26, 03:35:04,VALID,915.336,VALID,0,VALID,88.5765,VALID,0,VALID,19.5678,VALID,126,VALID,0,
2013-08-26, 03:36:04,VALID,915.315,VALID,0,VALID,88.02,VALID,0,VALID,19.6083,VALID,123,VALID,0,
2013-08-26, 03:37:04,VALID,915.31,VALID,0,VALID,87.8751,VALID,0,VALID,19.6263,VALID,141,VALID,0,
2013-08-26, 03:38:04,VALID,915.308,VALID,0,VALID,87.6617,VALID,0,VALID,19.6458,VALID,109,VALID,0,
2013-08-26, 03:39:04,VALID,915.322,VALID,0,VALID,87.3567,VALID,0.107441,VALID,19.7043,VALID,143,VALID,0,
2013-08-26, 03:40:04,VALID,915.358,VALID,0,VALID,87.1966,VALID,0,VALID,19.7028,VALID,141,VALID,0,
2013-08-26, 03:41:04,VALID,915.336,VALID,0,VALID,87.2271,VALID,0.107441,VALID,19.7223,VALID,135,VALID,0,
2013-08-26, 03:42:04,VALID,915.348,VALID,0,VALID,87.2119,VALID,0.107441,VALID,19.7028,VALID,179,VALID,0,
2013-08-26, 03:43:04,VALID,915.352,VALID,0,VALID,86.9451,VALID,0.107441,VALID,19.7028,VALID,173,VALID,0,
2013-08-26, 03:44:04,VALID,915.329,VALID,0,VALID,86.6859,VALID,0,VALID,19.7223,VALID,152,VALID,0,
2013-08-26, 03:45:04,VALID,915.378,VALID,0,VALID,86.4572,VALID,0,VALID,19.7433,VALID,190,VALID,0,
2013-08-26, 03:46:04,VALID,915.388,VALID,0,VALID,86.4724,VALID,0,VALID,19.7418,VALID,151,VALID,0,
2013-08-26, 03:47:04,VALID,915.381,VALID,0,VALID,86.3962,VALID,0,VALID,19.7418,VALID,162,VALID,0,
2013-08-26, 03:48:04,VALID,915.372,VALID,0,VALID,85.832,VALID,0.107441,VALID,19.7403,VALID,176,VALID,0,
2013-08-26, 03:49:04,VALID,915.396,VALID,0,VALID,85.8854,VALID,0,VALID,19.8003,VALID,166,VALID,0,
2013-08-26, 03:50:04,VALID,915.405,VALID,0,VALID,86.0303,VALID,0,VALID,19.8198,VALID,188,VALID,0,
2013-08-26, 03:51:04,VALID,915.395,VALID,0,VALID,85.3213,VALID,0,VALID,19.8198,VALID,183,VALID,0,
2013-08-26, 03:52:04,VALID,915.411,VALID,0,VALID,84.963,VALID,0,VALID,19.9188,VALID,177,VALID,0,
2013-08-26, 03:53:04,VALID,915.443,VALID,0,VALID,84.3836,VALID,0.107441,VALID,19.9563,VALID,92,VALID,0,
2013-08-26, 03:54:04,VALID,915.397,VALID,0,VALID,83.4917,VALID,0.107441,VALID,20.0343,VALID,118,VALID,0,
2013-08-26, 03:55:04,VALID,915.46,VALID,0,VALID,83.2096,VALID,0,VALID,20.1123,VALID,194,VALID,0,
2013-08-26, 03:56:04,VALID,915.456,VALID,0,VALID,82.8894,VALID,0,VALID,20.1708,VALID,191,VALID,0,
2013-08-26, 03:57:04,VALID,915.434,VALID,0,VALID,82.6455,VALID,0.107441,VALID,20.2489,VALID,194,VALID,0,
2013-08-26, 03:58:04,VALID,915.456,VALID,0,VALID,82.8665,VALID,0.107441,VALID,20.2684,VALID,183,VALID,0,